START_TIME,STEP,MOV.,M15,t_acc.,M20,t_acc.
1980-11-14 03:00:32.460 ,4,0,0.,24.0,0.,24.0
1980-11-14 03:00:56.460 ,5,1,0.,24.0,0.,24.0
1980-11-14 03:01:20.460 ,5,0,0.,24.0,0.,24.0
1980-11-14 03:01:44.460 ,6,1,0.,24.0,0.,24.0
1980-11-14 03:02:08.460 ,6,0,0.,24.0,0.,24.0
1980-11-14 03:02:32.460 ,7,1,0.,24.0,0.,24.0
1980-11-14 03:02:56.460 ,7,0,0.,24.0,0.,24.0
1980-11-14 03:03:20.460 ,7,1,0.,24.0,0.,24.0
1980-11-14 03:03:44.460 ,7,0,0.,24.0,0.,24.0
1980-11-14 03:04:08.460 ,6,1,0.,24.0,0.,24.0
1980-11-14 03:04:32.460 ,0,0,0.,24.0,0.,24.0
1980-11-14 03:07:20.460 ,0,0,0.,24.0,0.,24.0
1980-11-14 03:07:44.460 ,0,0,0.,24.0,0.,24.0
1980-11-14 03:08:08.460 ,1,1,0.,24.0,0.,24.0
1980-11-14 03:08:32.460 ,1,0,0.,24.0,0.,24.0
1980-11-14 03:08:56.460 ,0,1,0.,24.0,0.,24.0
1980-11-14 03:09:20.460 ,0,0,0.,24.0,0.,24.0
1980-11-14 03:09:44.460 ,0,1,0.,24.0,0.,24.0
1980-11-14 03:10:08.460 ,0,0,0.,24.0,0.,24.0
1980-11-14 03:10:32.460 ,1,1,0.,24.0,0.,24.0
1980-11-14 03:10:56.460 ,1,0,0.,24.0,0.,24.0
1980-11-14 03:11:20.460 ,2,1,0.,24.0,0.,24.0
1980-11-14 03:11:44.460 ,2,0,0.,24.0,0.,24.0
1980-11-14 03:12:08.460 ,3,1,0.,24.0,0.,24.0
1980-11-14 03:12:32.460 ,3,0,0.,24.0,0.,24.0
1980-11-14 03:12:56.460 ,4,1,0.,24.0,0.,24.0
1980-11-14 03:13:20.460 ,4,0,0.,24.0,0.,24.0
1980-11-14 03:13:44.460 ,5,1,0.,24.0,0.,24.0
1980-11-14 03:14:08.460 ,5,0,0.,24.0,0.,24.0
1980-11-14 03:14:32.460 ,6,1,0.,24.0,0.,24.0
1980-11-14 03:14:56.460 ,6,0,0.,24.0,0.,24.0
1980-11-14 03:15:20.460 ,7,1,0.,24.0,0.,24.0
1980-11-14 03:15:44.460 ,7,0,0.,24.0,0.,24.0
1980-11-14 03:16:08.460 ,7,1,0.,24.0,0.,24.0
1980-11-14 03:16:32.460 ,7,0,0.,24.0,0.,24.0
1980-11-14 03:16:56.460 ,6,1,0.,24.0,0.,24.0
1980-11-14 03:17:20.460 ,6,0,0.,24.0,0.,24.0
1980-11-14 03:17:44.460 ,5,1,0.,24.0,0.,24.0
1980-11-14 03:18:08.460 ,5,0,0.,24.0,0.,24.0
1980-11-14 03:18:32.460 ,4,1,0.,24.0,0.,24.0
1980-11-14 03:18:56.460 ,4,0,0.,24.0,0.,24.0
1980-11-14 03:19:20.460 ,3,1,0.,24.0,0.,24.0
1980-11-14 03:19:44.460 ,3,0,0.,24.0,0.,24.0
1980-11-14 03:20:08.460 ,2,1,0.,24.0,0.,24.0
1980-11-14 03:20:32.460 ,2,0,0.,24.0,0.,24.0
1980-11-14 03:20:56.460 ,1,1,0.,24.0,0.,24.0
1980-11-14 03:21:20.460 ,1,0,0.,24.0,0.,24.0
1980-11-14 03:21:44.460 ,0,1,0.,24.0,0.,24.0
1980-11-14 03:22:08.460 ,0,0,0.,24.0,0.,24.0
1980-11-14 03:22:32.460 ,0,1,0.,24.0,0.,24.0
1980-11-14 03:22:56.460 ,0,0,0.,24.0,0.,24.0
1980-11-14 03:23:20.460 ,1,1,0.,24.0,0.,24.0
1980-11-14 03:23:44.460 ,1,0,0.,24.0,0.,24.0
1980-11-14 03:24:08.460 ,2,1,1.,24.0,0.,24.0
1980-11-14 03:24:32.460 ,2,0,0.,24.0,0.,24.0
1980-11-14 03:24:56.460 ,3,1,0.,24.0,0.,24.0
1980-11-14 03:25:20.460 ,3,0,0.,24.0,0.,24.0
1980-11-14 03:25:44.460 ,4,1,0.,24.0,0.,24.0
1980-11-14 03:26:08.460 ,4,0,0.,24.0,0.,24.0
1980-11-14 03:26:32.460 ,5,1,0.,24.0,0.,24.0
1980-11-14 03:26:56.460 ,5,0,0.,24.0,0.,24.0
1980-11-14 03:27:20.460 ,6,1,0.,24.0,0.,24.0
1980-11-14 03:27:44.460 ,6,0,0.,24.0,0.,24.0
1980-11-14 03:28:08.460 ,7,1,0.,24.0,0.,24.0
1980-11-14 03:28:32.460 ,0,0,0.,24.0,0.,24.0
1980-11-14 03:32:50.460 ,0,0,0.,24.0,0.,24.0
1980-11-14 03:32:56.460 ,2,1,0.,24.0,0.,24.0
1980-11-14 03:33:20.460 ,2,0,0.,24.0,0.,24.0
1980-11-14 03:33:44.460 ,1,1,0.,24.0,0.,24.0
1980-11-14 03:34:08.460 ,1,0,0.,24.0,0.,24.0
1980-11-14 03:34:32.460 ,0,1,0.,24.0,0.,24.0
1980-11-14 03:34:56.460 ,0,0,0.,24.0,0.,24.0
1980-11-14 03:35:20.460 ,0,1,0.,24.0,0.,24.0
1980-11-14 03:35:44.460 ,0,0,0.,24.0,0.,24.0
1980-11-14 03:36:08.460 ,1,1,0.,24.0,0.,24.0
1980-11-14 03:36:32.460 ,1,0,0.,24.0,0.,24.0
1980-11-14 03:36:56.460 ,2,1,0.,24.0,0.,24.0
1980-11-14 03:37:20.460 ,2,0,0.,24.0,0.,24.0
1980-11-14 03:37:44.460 ,3,1,0.,24.0,0.,24.0
1980-11-14 03:38:08.460 ,3,0,0.,24.0,0.,24.0
1980-11-14 03:38:32.460 ,4,1,0.,24.0,0.,24.0
1980-11-14 03:38:56.460 ,4,0,0.,24.0,0.,24.0
1980-11-14 03:39:20.460 ,5,1,0.,24.0,0.,24.0
1980-11-14 03:39:44.460 ,5,0,0.,24.0,0.,24.0
1980-11-14 03:40:08.460 ,6,1,0.,24.0,0.,24.0
1980-11-14 03:40:32.460 ,6,0,0.,24.0,0.,24.0
1980-11-14 03:40:56.460 ,7,1,0.,24.0,0.,24.0
1980-11-14 03:41:20.460 ,7,0,0.,24.0,0.,24.0
1980-11-14 03:41:44.460 ,7,1,0.,24.0,0.,24.0
1980-11-14 03:42:08.460 ,7,0,0.,24.0,0.,24.0
1980-11-14 03:42:32.460 ,6,1,0.,24.0,0.,24.0
1980-11-14 03:42:56.460 ,6,0,0.,24.0,0.,24.0
1980-11-14 03:43:20.460 ,5,1,0.,24.0,0.,24.0
1980-11-14 03:43:44.460 ,5,0,0.,24.0,0.,24.0
1980-11-14 03:44:08.460 ,4,1,0.,24.0,0.,24.0
1980-11-14 03:44:32.460 ,4,0,0.,24.0,0.,24.0
1980-11-14 03:44:56.460 ,3,1,0.,24.0,0.,24.0
1980-11-14 03:45:20.460 ,3,0,0.,24.0,0.,24.0
1980-11-14 03:45:44.460 ,2,1,0.,24.0,0.,24.0
1980-11-14 03:46:08.460 ,2,0,0.,24.0,0.,24.0
1980-11-14 03:46:32.460 ,1,1,0.,24.0,0.,24.0
1980-11-14 03:46:56.460 ,1,0,0.,24.0,0.,24.0
1980-11-14 03:47:20.460 ,0,1,0.,24.0,0.,24.0
1980-11-14 03:47:44.460 ,0,0,0.,24.0,0.,24.0
1980-11-14 03:48:08.460 ,0,1,0.,24.0,0.,24.0
1980-11-14 03:48:32.460 ,0,0,0.,24.0,0.,24.0
1980-11-14 03:48:56.460 ,1,1,0.,24.0,0.,24.0
1980-11-14 03:49:20.460 ,1,0,0.,24.0,0.,24.0
1980-11-14 03:49:44.460 ,2,1,0.,24.0,0.,24.0
1980-11-14 03:50:08.460 ,2,0,0.,24.0,0.,24.0
1980-11-14 03:50:32.460 ,3,1,0.,24.0,0.,24.0
1980-11-14 03:50:56.460 ,3,0,0.,24.0,0.,24.0
1980-11-14 03:51:20.460 ,4,1,0.,24.0,0.,24.0
1980-11-14 03:51:44.460 ,4,0,0.,24.0,0.,24.0
1980-11-14 03:52:08.460 ,5,1,0.,24.0,0.,24.0
1980-11-14 03:52:32.460 ,5,0,0.,24.0,0.,24.0
1980-11-14 03:52:56.460 ,6,1,0.,24.0,0.,24.0
1980-11-14 03:53:20.460 ,6,0,0.,24.0,0.,24.0
1980-11-14 03:53:44.460 ,7,1,0.,24.0,0.,24.0
1980-11-14 03:54:08.460 ,7,0,0.,24.0,0.,24.0
1980-11-14 03:54:32.460 ,7,1,0.,24.0,0.,24.0
1980-11-14 03:54:56.460 ,7,0,0.,24.0,0.,24.0
1980-11-14 03:55:20.460 ,6,1,0.,24.0,0.,24.0
1980-11-14 03:55:44.460 ,6,0,0.,24.0,0.,24.0
1980-11-14 03:56:08.460 ,5,1,0.,24.0,0.,24.0
1980-11-14 03:56:32.460 ,5,0,0.,24.0,0.,24.0
1980-11-14 03:56:56.460 ,4,1,0.,24.0,0.,24.0
1980-11-14 03:57:20.460 ,4,0,0.,24.0,0.,24.0
1980-11-14 03:57:44.460 ,3,1,0.,24.0,0.,24.0
1980-11-14 03:58:08.460 ,3,0,0.,24.0,0.,24.0
1980-11-14 03:58:32.460 ,2,1,0.,24.0,0.,24.0
1980-11-14 03:58:56.460 ,2,0,0.,24.0,0.,24.0
1980-11-14 03:59:20.460 ,1,1,0.,24.0,0.,24.0
1980-11-14 03:59:44.460 ,1,0,0.,24.0,0.,24.0
1980-11-14 04:00:08.460 ,0,1,0.,24.0,0.,24.0
1980-11-14 04:00:32.460 ,0,0,0.,24.0,0.,24.0
1980-11-14 04:00:56.460 ,0,1,0.,24.0,0.,24.0
1980-11-14 04:01:20.460 ,0,0,0.,24.0,0.,24.0
1980-11-14 04:01:44.460 ,1,1,0.,24.0,0.,24.0
1980-11-14 04:02:08.460 ,1,0,0.,24.0,0.,24.0
1980-11-14 04:02:32.460 ,2,1,0.,24.0,0.,24.0
1980-11-14 04:02:56.460 ,2,0,0.,24.0,0.,24.0
1980-11-14 04:03:20.460 ,3,1,0.,24.0,0.,24.0
1980-11-14 04:03:44.460 ,3,0,0.,24.0,0.,24.0
1980-11-14 04:04:08.460 ,4,1,0.,24.0,0.,24.0
1980-11-14 04:04:32.460 ,4,0,0.,24.0,0.,24.0
1980-11-14 04:04:56.460 ,5,1,0.,24.0,0.,24.0
1980-11-14 04:05:20.460 ,5,0,0.,24.0,0.,24.0
1980-11-14 04:05:44.460 ,6,1,0.,24.0,0.,24.0
1980-11-14 04:06:08.460 ,6,0,0.,24.0,0.,24.0
1980-11-14 04:06:32.460 ,7,1,0.,24.0,0.,24.0
1980-11-14 04:06:56.460 ,7,0,0.,24.0,0.,24.0
1980-11-14 04:07:20.460 ,7,1,0.,24.0,0.,24.0
1980-11-14 04:07:44.460 ,7,0,0.,24.0,0.,24.0
1980-11-14 04:08:08.460 ,6,1,0.,24.0,0.,24.0
1980-11-14 04:08:32.460 ,6,0,0.,24.0,0.,24.0
1980-11-14 04:08:56.460 ,5,1,0.,24.0,0.,24.0
1980-11-14 04:09:20.460 ,5,0,0.,24.0,0.,24.0
1980-11-14 04:09:44.460 ,4,1,0.,24.0,0.,24.0
1980-11-14 04:10:08.460 ,4,0,0.,24.0,0.,24.0
1980-11-14 04:10:32.460 ,3,1,0.,24.0,0.,24.0
1980-11-14 04:10:56.460 ,3,0,0.,24.0,0.,24.0
1980-11-14 04:11:20.460 ,2,1,0.,24.0,0.,24.0
1980-11-14 04:11:44.460 ,2,0,0.,24.0,0.,24.0
1980-11-14 04:12:08.460 ,1,1,0.,24.0,0.,24.0
1980-11-14 04:12:32.460 ,1,0,0.,24.0,0.,24.0
1980-11-14 04:12:56.460 ,0,1,0.,24.0,0.,24.0
1980-11-14 04:13:20.460 ,0,0,0.,24.0,0.,24.0
1980-11-14 04:13:44.460 ,0,1,0.,24.0,0.,24.0
1980-11-14 04:14:08.460 ,0,0,0.,24.0,0.,24.0
1980-11-14 04:14:32.460 ,1,1,0.,24.0,0.,24.0
1980-11-14 04:14:56.460 ,1,0,0.,24.0,0.,24.0
1980-11-14 04:15:20.460 ,2,1,0.,24.0,0.,24.0
1980-11-14 04:15:44.460 ,2,0,0.,24.0,0.,24.0
1980-11-14 04:16:08.460 ,3,1,0.,24.0,0.,24.0
1980-11-14 04:16:32.460 ,3,0,0.,24.0,0.,24.0
1980-11-14 04:16:56.460 ,4,1,0.,24.0,0.,24.0
1980-11-14 04:17:20.460 ,4,0,0.,24.0,0.,24.0
1980-11-14 04:17:44.460 ,5,1,0.,24.0,0.,24.0
1980-11-14 04:18:08.460 ,5,0,0.,24.0,0.,24.0
1980-11-14 04:18:32.460 ,6,1,0.,24.0,0.,24.0
1980-11-14 04:18:56.460 ,6,0,0.,24.0,0.,24.0
1980-11-14 04:19:20.460 ,7,1,1.,24.0,0.,24.0
1980-11-14 04:19:44.460 ,7,0,0.,24.0,0.,24.0
1980-11-14 04:20:08.460 ,7,1,0.,24.0,0.,24.0
1980-11-14 04:20:32.460 ,7,0,0.,24.0,0.,24.0
1980-11-14 04:20:56.460 ,6,1,0.,24.0,0.,24.0
1980-11-14 04:21:20.460 ,0,0,0.,24.0,0.,24.0
1980-11-14 04:22:07.860 ,0,0,,0,,0
1980-11-14 04:22:08.460 ,0,0,0.,24.0,0.,24.0
1980-11-14 04:22:32.460 ,4,1,0.,24.0,0.,24.0
1980-11-14 04:22:56.460 ,4,0,0.,24.0,0.,24.0
1980-11-14 04:23:20.460 ,3,1,0.,24.0,0.,24.0
1980-11-14 04:23:44.460 ,3,0,0.,24.0,0.,24.0
1980-11-14 04:24:08.460 ,2,1,0.,24.0,0.,24.0
1980-11-14 04:24:32.460 ,2,0,0.,24.0,0.,24.0
1980-11-14 04:24:56.460 ,1,1,0.,24.0,0.,24.0
1980-11-14 04:25:20.460 ,1,0,0.,24.0,0.,24.0
1980-11-14 04:25:44.460 ,0,1,0.,24.0,0.,24.0
1980-11-14 04:26:08.460 ,0,0,0.,24.0,0.,24.0
1980-11-14 04:26:32.460 ,0,1,0.,24.0,0.,24.0
1980-11-14 04:26:56.460 ,0,0,0.,24.0,0.,24.0
1980-11-14 04:27:20.460 ,1,1,0.,24.0,0.,24.0
1980-11-14 04:27:44.460 ,1,0,0.,24.0,0.,24.0
1980-11-14 04:28:08.460 ,2,1,0.,24.0,0.,24.0
1980-11-14 04:28:32.460 ,2,0,0.,24.0,0.,24.0
1980-11-14 04:28:56.460 ,3,1,0.,24.0,0.,24.0
1980-11-14 04:29:20.460 ,3,0,0.,24.0,0.,24.0
1980-11-14 04:29:44.460 ,4,1,0.,24.0,0.,24.0
1980-11-14 04:30:08.460 ,4,0,0.,24.0,0.,24.0
1980-11-14 04:30:32.460 ,5,1,0.,24.0,0.,24.0
1980-11-14 04:30:56.460 ,5,0,0.,24.0,0.,24.0
1980-11-14 04:31:20.460 ,6,1,0.,24.0,0.,24.0
1980-11-14 04:31:44.460 ,6,0,0.,24.0,0.,24.0
1980-11-14 04:32:08.460 ,7,1,0.,24.0,0.,24.0
1980-11-14 04:32:32.460 ,7,0,0.,24.0,0.,24.0
1980-11-14 04:32:56.460 ,7,1,0.,24.0,0.,24.0
1980-11-14 04:33:20.460 ,7,0,0.,24.0,0.,24.0
1980-11-14 04:33:44.460 ,6,1,0.,24.0,0.,24.0
1980-11-14 04:34:08.460 ,6,0,0.,24.0,0.,24.0
1980-11-14 04:34:32.460 ,5,1,0.,24.0,0.,24.0
1980-11-14 04:34:56.460 ,5,0,0.,24.0,0.,24.0
1980-11-14 04:35:20.460 ,4,1,0.,24.0,0.,24.0
1980-11-14 04:35:44.460 ,4,0,0.,24.0,0.,24.0
1980-11-14 04:36:08.460 ,3,1,0.,24.0,0.,24.0
1980-11-14 04:36:32.460 ,3,0,0.,24.0,0.,24.0
1980-11-14 04:36:56.460 ,2,1,0.,24.0,0.,24.0
1980-11-14 04:37:20.460 ,2,0,0.,24.0,0.,24.0
1980-11-14 04:37:44.460 ,1,1,0.,24.0,0.,24.0
1980-11-14 04:38:08.460 ,1,0,0.,24.0,0.,24.0
1980-11-14 04:38:32.460 ,0,1,0.,24.0,0.,24.0
1980-11-14 04:38:56.460 ,0,0,0.,24.0,0.,24.0
1980-11-14 04:39:20.460 ,0,1,0.,24.0,0.,24.0
1980-11-14 04:39:44.460 ,0,0,0.,24.0,0.,24.0
1980-11-14 04:40:08.460 ,1,1,0.,24.0,0.,24.0
1980-11-14 04:40:32.460 ,1,0,0.,24.0,0.,24.0
1980-11-14 04:40:56.460 ,2,1,0.,24.0,0.,24.0
1980-11-14 04:41:20.460 ,2,0,0.,24.0,0.,24.0
1980-11-14 04:41:44.460 ,3,1,0.,24.0,0.,24.0
1980-11-14 04:42:08.460 ,3,0,0.,24.0,0.,24.0
1980-11-14 04:42:32.460 ,4,1,0.,24.0,0.,24.0
1980-11-14 04:42:56.460 ,4,0,0.,24.0,0.,24.0
1980-11-14 04:43:20.460 ,5,1,0.,24.0,0.,24.0
1980-11-14 04:43:44.460 ,5,0,0.,24.0,0.,24.0
1980-11-14 04:44:08.460 ,6,1,0.,24.0,0.,24.0
1980-11-14 04:44:32.460 ,6,0,0.,24.0,0.,24.0
1980-11-14 04:44:56.460 ,7,1,0.,24.0,0.,24.0
1980-11-14 04:45:20.460 ,7,0,0.,24.0,0.,24.0
1980-11-14 04:45:44.460 ,7,1,0.,24.0,0.,24.0
1980-11-14 04:46:08.460 ,7,0,0.,24.0,0.,24.0
1980-11-14 04:46:32.460 ,6,1,0.,24.0,0.,24.0
1980-11-14 04:46:56.460 ,6,0,0.,24.0,0.,24.0
1980-11-14 04:47:20.460 ,5,1,0.,24.0,0.,24.0
1980-11-14 04:47:44.460 ,5,0,0.,24.0,0.,24.0
1980-11-14 04:48:08.460 ,4,1,0.,24.0,0.,24.0
1980-11-14 04:48:32.460 ,4,0,0.,24.0,0.,24.0
1980-11-14 04:48:56.460 ,3,1,0.,24.0,0.,24.0
1980-11-14 04:49:20.460 ,3,0,0.,24.0,0.,24.0
1980-11-14 04:49:44.460 ,2,1,0.,24.0,0.,24.0
1980-11-14 04:50:08.460 ,2,0,0.,24.0,0.,24.0
1980-11-14 04:50:32.460 ,1,1,0.,24.0,0.,24.0
1980-11-14 04:50:56.460 ,1,0,0.,24.0,0.,24.0
1980-11-14 04:51:20.460 ,0,1,0.,24.0,0.,24.0
1980-11-14 04:51:44.460 ,0,0,0.,24.0,0.,24.0
1980-11-14 04:52:08.460 ,0,1,0.,24.0,0.,24.0
1980-11-14 04:52:32.460 ,0,0,0.,24.0,0.,24.0
1980-11-14 04:52:56.460 ,1,1,0.,24.0,0.,24.0
1980-11-14 04:53:20.460 ,1,0,0.,24.0,0.,24.0
1980-11-14 04:53:44.460 ,2,1,0.,24.0,0.,24.0
1980-11-14 04:54:08.460 ,2,0,0.,24.0,0.,24.0
1980-11-14 04:54:32.460 ,3,1,0.,24.0,0.,24.0
1980-11-14 04:54:56.460 ,3,0,0.,24.0,0.,24.0
1980-11-14 04:55:20.460 ,4,1,0.,24.0,0.,24.0
1980-11-14 04:55:44.460 ,4,0,0.,24.0,0.,24.0
1980-11-14 04:56:08.460 ,5,1,0.,24.0,0.,24.0
1980-11-14 04:56:32.460 ,5,0,0.,24.0,0.,24.0
1980-11-14 04:56:56.460 ,6,1,0.,24.0,0.,24.0
1980-11-14 04:57:20.460 ,6,0,0.,24.0,0.,24.0
1980-11-14 04:57:44.460 ,7,1,0.,24.0,0.,24.0
1980-11-14 04:58:08.460 ,7,0,0.,24.0,0.,24.0
1980-11-14 04:58:32.460 ,7,1,0.,24.0,0.,24.0
1980-11-14 04:58:56.460 ,7,0,0.,24.0,0.,24.0
1980-11-14 04:59:20.460 ,6,1,0.,24.0,0.,24.0
1980-11-14 04:59:44.460 ,6,0,0.,24.0,0.,24.0
1980-11-14 05:00:08.460 ,5,1,0.,24.0,0.,24.0
1980-11-14 05:00:32.470 ,5,0,0.,24.0,0.,24.0
1980-11-14 05:00:56.470 ,4,1,0.,24.0,0.,24.0
1980-11-14 05:01:20.470 ,4,0,0.,24.0,0.,24.0
1980-11-14 05:01:44.470 ,3,1,0.,24.0,0.,24.0
1980-11-14 05:02:08.470 ,3,0,0.,24.0,0.,24.0
1980-11-14 05:02:32.470 ,2,1,0.,24.0,0.,24.0
1980-11-14 05:02:56.470 ,2,0,0.,24.0,0.,24.0
1980-11-14 05:03:20.470 ,1,1,0.,24.0,0.,24.0
1980-11-14 05:03:44.470 ,1,0,0.,24.0,0.,24.0
1980-11-14 05:04:08.470 ,0,1,0.,24.0,0.,24.0
1980-11-14 05:04:32.470 ,0,0,0.,24.0,0.,24.0
1980-11-14 05:04:56.470 ,0,1,0.,24.0,0.,24.0
1980-11-14 05:05:20.460 ,0,0,0.,24.0,0.,24.0
1980-11-14 05:05:44.470 ,1,1,0.,24.0,0.,24.0
1980-11-14 05:06:08.460 ,1,0,0.,24.0,0.,24.0
1980-11-14 05:06:32.470 ,2,1,0.,24.0,0.,24.0
1980-11-14 05:06:56.470 ,2,0,0.,24.0,0.,24.0
1980-11-14 05:07:20.460 ,3,1,0.,24.0,0.,24.0
1980-11-14 05:07:44.470 ,3,0,0.,24.0,0.,24.0
1980-11-14 05:08:08.460 ,4,1,0.,24.0,0.,24.0
1980-11-14 05:08:32.470 ,4,0,0.,24.0,0.,24.0
1980-11-14 05:08:56.470 ,5,1,0.,24.0,0.,24.0
1980-11-14 05:09:20.470 ,5,0,0.,24.0,0.,24.0
1980-11-14 05:09:44.470 ,6,1,0.,24.0,0.,24.0
1980-11-14 05:10:08.470 ,6,0,0.,24.0,0.,24.0
1980-11-14 05:10:32.470 ,7,1,0.,24.0,0.,24.0
1980-11-14 05:10:56.470 ,7,0,0.,24.0,0.,24.0
1980-11-14 05:11:20.470 ,7,1,0.,24.0,0.,24.0
1980-11-14 05:11:44.470 ,7,0,0.,24.0,0.,24.0
1980-11-14 05:12:08.470 ,6,1,0.,24.0,0.,24.0
1980-11-14 05:12:32.470 ,6,0,0.,24.0,0.,24.0
1980-11-14 05:12:56.470 ,5,1,0.,24.0,0.,24.0
1980-11-14 05:13:20.470 ,5,0,0.,24.0,0.,24.0
1980-11-14 05:13:44.470 ,4,1,0.,24.0,0.,24.0
1980-11-14 05:14:08.470 ,4,0,0.,24.0,0.,24.0
1980-11-14 05:14:32.470 ,3,1,0.,24.0,0.,24.0
1980-11-14 05:14:56.470 ,3,0,0.,24.0,0.,24.0
1980-11-14 05:15:20.470 ,2,1,0.,24.0,0.,24.0
1980-11-14 05:15:44.470 ,2,0,0.,24.0,0.,24.0
1980-11-14 05:16:08.470 ,1,1,0.,24.0,0.,24.0
1980-11-14 05:16:32.470 ,1,0,0.,24.0,0.,24.0
1980-11-14 05:16:56.470 ,0,1,0.,24.0,0.,24.0
1980-11-14 05:17:20.460 ,0,0,0.,24.0,0.,24.0
1980-11-14 05:17:44.460 ,0,1,0.,24.0,0.,24.0
1980-11-14 05:18:08.460 ,0,0,0.,24.0,0.,24.0
1980-11-14 05:18:32.460 ,1,1,0.,24.0,0.,24.0
1980-11-14 05:18:56.460 ,1,0,0.,24.0,0.,24.0
1980-11-14 05:19:20.460 ,2,1,0.,24.0,0.,24.0
1980-11-14 05:19:44.460 ,2,0,0.,24.0,0.,24.0
1980-11-14 05:20:08.460 ,3,1,0.,24.0,0.,24.0
1980-11-14 05:20:32.460 ,3,0,0.,24.0,0.,24.0
1980-11-14 05:20:56.460 ,4,1,0.,24.0,0.,24.0
1980-11-14 05:21:20.460 ,4,0,0.,24.0,0.,24.0
1980-11-14 05:21:44.460 ,5,1,0.,24.0,0.,24.0
1980-11-14 05:22:08.460 ,5,0,0.,24.0,0.,24.0
1980-11-14 05:22:32.460 ,6,1,0.,24.0,0.,24.0
1980-11-14 05:22:56.460 ,6,0,0.,24.0,0.,24.0
1980-11-14 05:24:08.460 ,0,0,0.,24.0,0.,24.0
1980-11-14 05:24:32.460 ,0,0,0.,24.0,0.,24.0
1980-11-14 05:24:56.460 ,6,1,0.,24.0,0.,24.0
1980-11-14 05:25:20.460 ,6,0,0.,24.0,0.,24.0
1980-11-14 05:25:44.460 ,5,1,0.,24.0,0.,24.0
1980-11-14 05:26:08.460 ,5,0,0.,24.0,0.,24.0
1980-11-14 05:26:32.460 ,4,1,0.,24.0,0.,24.0
1980-11-14 05:26:56.460 ,4,0,0.,24.0,0.,24.0
1980-11-14 05:27:20.460 ,3,1,0.,24.0,0.,24.0
1980-11-14 05:27:44.460 ,3,0,0.,24.0,0.,24.0
1980-11-14 05:28:08.460 ,2,1,0.,24.0,0.,24.0
1980-11-14 05:28:32.460 ,2,0,0.,24.0,0.,24.0
1980-11-14 05:28:56.460 ,1,1,0.,24.0,0.,24.0
1980-11-14 05:29:20.460 ,1,0,0.,24.0,0.,24.0
1980-11-14 05:29:44.460 ,0,1,0.,24.0,0.,24.0
1980-11-14 05:30:08.460 ,0,0,0.,24.0,0.,24.0
1980-11-14 05:30:32.460 ,0,1,0.,24.0,0.,24.0
1980-11-14 05:30:56.460 ,0,0,0.,24.0,0.,24.0
1980-11-14 05:31:20.460 ,1,1,0.,24.0,0.,24.0
1980-11-14 05:31:44.460 ,1,0,0.,24.0,0.,24.0
1980-11-14 05:32:08.460 ,2,1,0.,24.0,0.,24.0
1980-11-14 05:32:32.460 ,2,0,0.,24.0,0.,24.0
1980-11-14 05:32:56.460 ,3,1,0.,24.0,0.,24.0
1980-11-14 05:33:20.460 ,3,0,0.,24.0,0.,24.0
1980-11-14 05:33:44.460 ,4,1,0.,24.0,0.,24.0
1980-11-14 05:34:08.460 ,4,0,0.,24.0,0.,24.0
1980-11-14 05:34:32.460 ,5,1,0.,24.0,0.,24.0
1980-11-14 05:34:56.460 ,5,0,0.,24.0,0.,24.0
1980-11-14 05:35:20.460 ,6,1,0.,24.0,0.,24.0
1980-11-14 05:35:44.460 ,6,0,0.,24.0,0.,24.0
1980-11-14 05:36:08.460 ,7,1,0.,24.0,0.,24.0
1980-11-14 05:36:32.460 ,7,0,0.,24.0,0.,24.0
1980-11-14 05:36:56.460 ,7,1,0.,24.0,0.,24.0
1980-11-14 05:37:20.460 ,7,0,0.,24.0,0.,24.0
1980-11-14 05:37:44.460 ,6,1,0.,24.0,0.,24.0
1980-11-14 05:38:08.460 ,6,0,0.,24.0,0.,24.0
1980-11-14 05:38:32.460 ,5,1,0.,24.0,0.,24.0
1980-11-14 05:38:56.460 ,5,0,0.,24.0,0.,24.0
1980-11-14 05:39:20.460 ,4,1,0.,24.0,0.,24.0
1980-11-14 05:39:44.460 ,4,0,0.,24.0,0.,24.0
1980-11-14 05:40:08.460 ,3,1,0.,24.0,0.,24.0
1980-11-14 05:40:32.460 ,3,0,0.,24.0,0.,24.0
1980-11-14 05:40:56.460 ,2,1,0.,24.0,0.,24.0
1980-11-14 05:41:20.460 ,0,0,0.,24.0,0.,24.0
1980-11-14 05:43:34.860 ,0,0,0.,24.0,0.,24.0
1980-11-14 05:43:44.460 ,0,0,0.,24.0,0.,24.0
1980-11-14 05:44:08.460 ,1,1,0.,24.0,0.,24.0
1980-11-14 05:44:32.460 ,1,0,0.,24.0,0.,24.0
1980-11-14 05:44:56.460 ,2,1,0.,24.0,0.,24.0
1980-11-14 05:45:20.460 ,2,0,0.,24.0,0.,24.0
1980-11-14 05:45:44.460 ,3,1,0.,24.0,0.,24.0
1980-11-14 05:46:08.460 ,3,0,0.,24.0,0.,24.0
1980-11-14 05:46:32.460 ,4,1,0.,24.0,0.,24.0
1980-11-14 05:46:56.460 ,4,0,0.,24.0,0.,24.0
1980-11-14 05:47:20.460 ,5,1,0.,24.0,0.,24.0
1980-11-14 05:47:44.460 ,5,0,0.,24.0,0.,24.0
1980-11-14 05:48:08.460 ,6,1,0.,24.0,0.,24.0
1980-11-14 05:48:32.460 ,6,0,0.,24.0,0.,24.0
1980-11-14 05:48:56.460 ,7,1,0.,24.0,0.,24.0
1980-11-14 05:49:20.460 ,7,0,0.,24.0,0.,24.0
1980-11-14 05:49:44.460 ,7,1,0.,24.0,0.,24.0
1980-11-14 05:50:08.460 ,7,0,0.,24.0,0.,24.0
1980-11-14 05:50:32.460 ,6,1,0.,24.0,0.,24.0
1980-11-14 05:50:56.460 ,6,0,0.,24.0,0.,24.0
1980-11-14 05:51:20.460 ,5,1,0.,24.0,0.,24.0
1980-11-14 05:51:44.460 ,5,0,0.,24.0,0.,24.0
1980-11-14 05:52:08.460 ,4,1,0.,24.0,0.,24.0
1980-11-14 05:52:32.460 ,4,0,0.,24.0,0.,24.0
1980-11-14 05:52:56.460 ,3,1,0.,24.0,0.,24.0
1980-11-14 05:53:20.460 ,3,0,0.,24.0,0.,24.0
1980-11-14 05:53:44.460 ,2,1,0.,24.0,0.,24.0
1980-11-14 05:54:08.460 ,2,0,0.,24.0,0.,24.0
1980-11-14 05:54:32.470 ,1,1,0.,24.0,0.,24.0
1980-11-14 05:54:56.470 ,1,0,0.,24.0,0.,24.0
1980-11-14 05:55:20.470 ,0,1,0.,24.0,0.,24.0
1980-11-14 05:55:44.470 ,0,0,0.,24.0,0.,24.0
1980-11-14 05:56:08.470 ,0,1,0.,24.0,0.,24.0
1980-11-14 05:56:32.470 ,0,0,0.,24.0,0.,24.0
1980-11-14 05:56:56.470 ,1,1,0.,24.0,0.,24.0
1980-11-14 05:57:20.470 ,1,0,0.,24.0,0.,24.0
1980-11-14 05:57:44.470 ,2,1,0.,24.0,0.,24.0
1980-11-14 05:58:08.470 ,2,0,0.,24.0,0.,24.0
1980-11-14 05:58:32.470 ,3,1,0.,24.0,0.,24.0
1980-11-14 05:58:56.470 ,3,0,0.,24.0,0.,24.0
1980-11-14 05:59:20.470 ,4,1,0.,24.0,0.,24.0
1980-11-14 05:59:44.470 ,4,0,0.,24.0,0.,24.0
1980-11-14 06:00:08.470 ,5,1,0.,24.0,0.,24.0
